Location: Atherton
(17.2661°S, 145.4859°E)
Time: 23:03:36
(UTC+10:00)

Transit 2A - Pass Details

Date: 22 June 2025
Orbit: 598 x 948 km, 66.7° (Epoch: 19 July)

Event Time Altitude Azimuth Distance (km) Brightness Sun altitude
Rises 20:25:15 0° 190° (S) 3,386 - -35.0°
Reaches altitude 10° 20:28:01 10° 181° (S) 2,388 - -35.6°
Maximum altitude 20:32:58 35° 116° (ESE) 1,198 - -36.7°
Drops below altitude 10° 20:37:27 10° 50° (NE) 2,156 - -37.7°
Sets 20:39:50 0° 41° (NE) 3,014 - -38.3°
